[[{"header":{"parameterUnit":"m.s-1","parameterCategory":1,"la1":30.2991,"la2":30.254,"lo1":-89.0895,"lo2":-89.0444,"dy":0.0017,"dx":0.0017,"nx":28,"ny":28,"refTime":"2024-10-13T09:00:00:Z","depth":0,"parameterNumber":2,"parameterNumberName":"U-component_of_WINDS"},"data":[0,0,0,0,0,0,0,0,0,0,0,0,0,0,0,0,0,0,0,0,0,0,0,0,0,0,0,0,0,0,0,0,0,0,0,0,0,0,0,0,0,0,0,0,0,0,0,0,0,0,0,0,0,0,0,0,0,0,4.0301,4.0302,0,4.0385,4.0386,4.0387,4.0275,4.0271,4.0267,4.0263,4.0352,4.0358,4.0364,0,0,0,0,0,0,0,0,0,0,0,0,0,4.005,4.0055,4.0301,4.0302,4.0303,4.0385,4.0386,4.0387,4.0276,4.0271,4.0266,4.0262,4.035,4.0357,4.0365,0,0,0,0,0,0,0,0,0,0,0,0,0,4.0149,4.0057,4.0301,4.0258,4.0255,4.0385,4.0386,4.0387,4.0277,4.0271,4.0265,4.0259,4.0348,4.0357,4.0366,4.0543,0,0,4.0394,4.0398,0,0,0,0,0,0,0,0,4.0143,4.0158,4.0263,4.0261,4.0258,4.0313,4.033,4.044,4.0278,4.0269,4.0263,4.0256,4.0344,4.0353,4.0382,4.0547,4.0551,4.0394,4.04,4.0404,4.0407,0,0,0,0,0,0,0,4.0137,4.0154,4.0334,4.0265,4.0262,4.0235,4.0243,4.035,4.0339,4.0269,4.0261,4.0272,4.0342,4.0374,4.0384,4.0552,4.0394,4.0402,4.0408,4.0412,4.0869,4.0875,0,0,0,0,0,0,4.0134,4.0149,4.0332,4.0337,4.0184,4.0245,4.0253,4.0302,4.0338,4.0338,4.0277,4.0267,4.0361,4.0373,4.0386,4.0597,4.0404,4.0412,4.0418,4.0862,4.087,4.0877,0,0,0,0,0,0,4.0129,4.0152,4.0328,4.0241,4.0261,4.0256,4.0311,4.0307,4.0338,4.0344,4.0342,4.0312,4.0357,4.0373,4.0505,4.0598,4.0417,4.0425,4.0854,4.0865,4.0874,4.1019,0,0,0,0,0,0,4.0123,4.0151,4.0217,4.0243,4.0266,4.0445,4.0317,4.0313,4.0354,4.0341,4.0376,4.0376,4.0353,4.0492,4.0514,4.0607,4.0432,4.0846,4.0859,4.0871,4.1006,4.1033,4.1056,0,0,0,0,0,4.0114,4.0255,4.0221,4.0243,4.0349,4.045,4.0464,4.0434,4.0362,4.0429,4.0433,4.0375,4.0585,4.0506,4.053,4.0628,4.084,4.0855,4.087,4.0994,4.1027,4.1055,0,0,0,0,0,0,4.024,4.0257,4.022,4.0373,4.0411,4.0431,4.0514,4.0469,4.0529,4.0515,4.0476,4.0485,4.0626,4.064,4.0552,4.0803,4.0701,4.0721,4.0787,4.0819,4.0843,4.0836,4.044,0,0,0,0,0,4.0285,4.0365,4.0376,4.0511,4.0532,4.0521,4.0563,4.0537,4.0576,4.0591,4.0605,4.0645,4.072,4.077,4.084,4.1008,4.1015,4.1087,4.1112,4.1133,4.115,4.1241,4.1274,4.0926,4.0926,4.0926,0,0,4.038,4.0399,4.0452,4.0536,4.0563,4.0647,4.0535,4.0628,4.0691,4.0606,4.073,4.0743,4.0785,4.0936,4.1003,4.0953,4.1248,4.1152,4.1168,4.1175,4.126,4.1293,4.1322,4.0937,4.0935,4.0933,0,0,4.0595,4.0618,4.0732,4.0762,4.0803,4.0795,4.0823,4.0851,4.0855,4.098,4.0918,4.0993,4.1123,4.1156,4.119,4.1422,4.1371,4.1446,4.1575,4.1665,4.1692,4.1716,4.1799,4.1829,4.1464,4.1464,4.1465,0,4.0708,4.0831,4.0797,4.0896,4.0935,4.0862,4.0979,4.1009,4.1072,4.1101,4.1044,4.1206,4.123,4.1388,4.1445,4.1475,4.1506,4.1441,4.1691,4.1715,4.1737,4.1815,4.1846,4.1473,4.1472,4.1471,4.147,0,4.0968,4.1055,4.1143,4.1204,4.1254,4.1362,4.1345,4.14,4.1371,4.137,4.1499,4.1525,4.1599,4.1635,4.1607,4.179,4.1757,4.1696,4.1593,4.1779,4.1852,4.1882,4.1486,4.1483,4.148,4.1478,0,0,4.1262,4.1305,4.1338,4.1365,4.1407,4.1474,4.158,4.1651,4.1699,4.1746,4.1834,4.1947,4.1891,4.193,4.1906,4.1985,4.2167,4.1914,4.1914,4.1959,4.237,4.2415,4.245,4.2134,4.214,4.2144,4.2367,0,4.1476,4.1656,4.163,4.1804,4.1885,4.1819,4.191,4.1947,4.195,4.202,4.2023,4.2104,4.2024,4.2047,4.2122,4.2129,4.2249,4.2113,4.2216,4.222,4.2205,4.2488,4.2535,4.2744,4.2395,4.24,4.2403,0,4.175,4.1806,4.1989,4.2019,4.2052,4.2135,4.2199,4.2267,4.2308,4.2305,4.235,4.2313,4.242,4.2316,4.2464,4.2372,4.2413,4.2423,4.2431,4.2438,4.2321,4.2502,4.2809,4.284,4.2448,4.2444,4.2441,0,4.1945,4.2067,4.2192,4.2218,4.2257,4.2317,4.2336,4.2371,4.2417,4.2474,4.2504,4.2573,4.2611,4.2667,4.265,4.2576,4.2802,4.2697,4.2803,4.2803,4.2851,4.2848,4.3168,4.2881,4.288,4.288,4.2879,0,4.2187,4.2301,4.228,4.2357,4.2484,4.2454,4.258,4.2592,4.2624,4.2703,4.2651,4.2726,4.27,4.2775,4.2763,4.2888,4.2906,4.2906,4.2902,4.291,4.291,4.2935,4.292,4.2888,4.2886,4.2885,4.2883,0,4.2425,4.2416,4.2548,4.2575,4.2584,4.2676,4.27,4.2773,4.2772,4.2873,4.2895,4.2895,4.2981,4.297,4.3066,4.3058,4.3212,4.3191,4.3198,4.3193,4.3299,4.3288,4.3645,4.369,4.3375,4.3378,4.338,0,4.2579,4.2665,4.2702,4.275,4.2774,4.2853,4.2899,4.2875,4.2925,4.298,4.3047,4.3128,4.3191,4.3331,4.334,4.3414,4.3393,4.3513,4.3403,4.341,4.3394,4.3388,4.3397,4.3534,4.3537,4.354,4.3543,0,4.2853,4.2845,4.2912,4.298,4.3037,4.3089,4.3136,4.318,4.316,4.322,4.3306,4.3355,4.3453,4.3534,4.3604,4.3625,4.3582,4.3578,4.3606,4.3614,4.3615,4.3615,4.3255,4.3569,4.3566,4.3564,4.3563,4.3562,4.3053,4.3126,4.3164,4.3242,4.3275,4.3321,4.3391,4.34,4.3471,4.3548,4.353,4.3628,4.367,4.3759,4.3788,4.3865,4.3821,4.3862,4.3873,4.3883,4.3895,4.3604,4.3878,4.3877,4.3877,4.3876,4.3876,0,4.3323,4.3344,4.3417,4.3484,4.3547,4.35,4.3551,4.3606,4.3692,4.3734,4.3798,4.3898,4.3977,4.3994,4.407,4.4129,4.4111,4.415,4.4144,4.415,4.393,4.3897,4.4163,4.4163,4.4163,4.4163,4.4163,4.4163,4.347,4.3593,4.359,4.3729,4.375,4.3845,4.3878,4.392,4.3954,4.4068,4.4133,4.4143,4.4176,4.4254,4.4326,4.4329,4.4359,4.4405,4.4401,4.4194,4.4165,4.4138,4.4107,4.4413,4.4413,4.4614,4.4616,4.4617]},{"header":{"parameterUnit":"m.s-1","parameterCategory":1,"la1":30.2991,"la2":30.254,"lo1":-89.0895,"lo2":-89.0444,"dy":0.0017,"dx":0.0017,"nx":28,"ny":28,"refTime":"2024-10-13T09:00:00:Z","depth":0,"parameterNumber":3,"parameterNumberName":"V-component_of_WINDS"},"data":[0,0,0,0,0,0,0,0,0,0,0,0,0,0,0,0,0,0,0,0,0,0,0,0,0,0,0,0,0,0,0,0,0,0,0,0,0,0,0,0,0,0,0,0,0,0,0,0,0,0,0,0,0,0,0,0,0,0,-0.1984,-0.1984,0,-0.1999,-0.1999,-0.2,-0.2019,-0.2019,-0.202,-0.202,-0.2035,-0.2035,-0.2035,0,0,0,0,0,0,0,0,0,0,0,0,0,-0.197,-0.197,-0.1984,-0.1984,-0.1984,-0.1999,-0.1999,-0.2,-0.2019,-0.2019,-0.202,-0.202,-0.2035,-0.2035,-0.2035,0,0,0,0,0,0,0,0,0,0,0,0,0,-0.1979,-0.197,-0.1984,-0.1995,-0.1997,-0.1999,-0.1999,-0.2,-0.2019,-0.2019,-0.202,-0.202,-0.2035,-0.2035,-0.2035,-0.2027,0,0,-0.2036,-0.2036,0,0,0,0,0,0,0,0,-0.1979,-0.198,-0.1993,-0.1995,-0.1996,-0.2008,-0.2,-0.2009,-0.2019,-0.201,-0.202,-0.202,-0.2025,-0.2026,-0.2028,-0.2028,-0.2029,-0.2036,-0.2036,-0.2036,-0.2036,0,0,0,0,0,0,0,-0.1978,-0.1979,-0.199,-0.1994,-0.1995,-0.2,-0.2002,-0.2002,-0.2015,-0.2011,-0.2013,-0.2014,-0.2026,-0.2028,-0.2029,-0.2029,-0.2036,-0.2036,-0.2036,-0.2036,-0.2023,-0.2022,0,0,0,0,0,0,-0.1976,-0.1979,-0.1989,-0.199,-0.1988,-0.2,-0.2002,-0.2003,-0.2015,-0.2017,-0.2014,-0.2015,-0.2028,-0.2029,-0.2029,-0.2021,-0.2036,-0.2036,-0.2036,-0.2023,-0.2023,-0.2022,0,0,0,0,0,0,-0.1975,-0.1977,-0.1989,-0.1985,-0.1987,-0.1999,-0.2001,-0.2003,-0.2005,-0.2017,-0.202,-0.2013,-0.2028,-0.2029,-0.2028,-0.2022,-0.2036,-0.2036,-0.2024,-0.2023,-0.2022,-0.2003,0,0,0,0,0,0,-0.1975,-0.1976,-0.1973,-0.1985,-0.1987,-0.1987,-0.2001,-0.2003,-0.2006,-0.2008,-0.2017,-0.2019,-0.2028,-0.2027,-0.2028,-0.2022,-0.2037,-0.2024,-0.2023,-0.2023,-0.2005,-0.2002,-0.2,0,0,0,0,0,-0.1974,-0.1967,-0.1973,-0.1974,-0.1984,-0.1986,-0.1988,-0.1998,-0.2005,-0.2002,-0.201,-0.2019,-0.2022,-0.2027,-0.2028,-0.2022,-0.2025,-0.2024,-0.2023,-0.2006,-0.2003,-0.2,0,0,0,0,0,0,-0.1955,-0.1969,-0.1976,-0.1972,-0.1978,-0.199,-0.1986,-0.1995,-0.1998,-0.2,-0.2013,-0.2015,-0.2012,-0.2017,-0.2022,-0.2015,-0.2025,-0.2024,-0.2012,-0.2009,-0.2007,-0.2005,-0.2037,0,0,0,0,0,-0.195,-0.1951,-0.1964,-0.1959,-0.1962,-0.1973,-0.1975,-0.1983,-0.1989,-0.1992,-0.1999,-0.2005,-0.2007,-0.2008,-0.2011,-0.2006,-0.2008,-0.2002,-0.2,-0.1998,-0.1997,-0.1994,-0.1991,-0.2019,-0.2019,-0.2019,0,0,-0.194,-0.1948,-0.1948,-0.1955,-0.1961,-0.1961,-0.1975,-0.1976,-0.1976,-0.1992,-0.1991,-0.1997,-0.2004,-0.2,-0.1999,-0.2004,-0.199,-0.1996,-0.1995,-0.1995,-0.1993,-0.199,-0.1988,-0.2018,-0.2018,-0.2018,0,0,-0.1922,-0.1929,-0.1926,-0.1931,-0.1939,-0.1947,-0.1946,-0.1957,-0.1961,-0.1961,-0.1972,-0.1973,-0.1977,-0.1982,-0.1985,-0.1969,-0.1978,-0.197,-0.1957,-0.1955,-0.1952,-0.1951,-0.1945,-0.1943,-0.1969,-0.1969,-0.1969,0,-0.1909,-0.1911,-0.1923,-0.1922,-0.1925,-0.194,-0.1937,-0.1941,-0.195,-0.1951,-0.1957,-0.1962,-0.1968,-0.1966,-0.1962,-0.1964,-0.1964,-0.1968,-0.1952,-0.195,-0.1949,-0.1943,-0.1941,-0.1968,-0.1968,-0.1968,-0.1968,0,-0.1894,-0.1895,-0.1891,-0.1899,-0.1902,-0.19,-0.1912,-0.1913,-0.1921,-0.1928,-0.1927,-0.1935,-0.194,-0.194,-0.1947,-0.1939,-0.1942,-0.195,-0.196,-0.1945,-0.194,-0.1938,-0.1966,-0.1966,-0.1967,-0.1967,0,0,-0.1863,-0.1879,-0.1877,-0.1881,-0.1891,-0.1892,-0.1891,-0.1896,-0.1897,-0.1902,-0.1901,-0.1905,-0.1912,-0.1915,-0.1923,-0.1921,-0.1908,-0.1929,-0.193,-0.1925,-0.1899,-0.1892,-0.189,-0.1914,-0.1914,-0.1914,-0.1898,0,-0.1847,-0.1846,-0.1857,-0.1853,-0.1854,-0.1869,-0.1868,-0.1874,-0.1881,-0.1882,-0.189,-0.1892,-0.1902,-0.1904,-0.1902,-0.191,-0.1903,-0.1911,-0.1913,-0.1913,-0.191,-0.1887,-0.1881,-0.1865,-0.1896,-0.1896,-0.1896,0,-0.1828,-0.1833,-0.1829,-0.184,-0.184,-0.1839,-0.1845,-0.1846,-0.1854,-0.1859,-0.1863,-0.1872,-0.1872,-0.1882,-0.1881,-0.1887,-0.1888,-0.1892,-0.1892,-0.1892,-0.1903,-0.1886,-0.1861,-0.1859,-0.1893,-0.1893,-0.1893,0,-0.1806,-0.1811,-0.181,-0.1813,-0.1825,-0.1824,-0.1829,-0.1837,-0.1839,-0.1844,-0.1846,-0.185,-0.1852,-0.1856,-0.1866,-0.1873,-0.1864,-0.1875,-0.1868,-0.1868,-0.1865,-0.1865,-0.1839,-0.1867,-0.1867,-0.1867,-0.1867,0,-0.1786,-0.1783,-0.18,-0.1799,-0.1796,-0.1809,-0.1806,-0.1812,-0.1819,-0.1819,-0.1832,-0.1832,-0.1846,-0.1848,-0.1856,-0.1854,-0.1855,-0.1859,-0.1861,-0.1858,-0.1857,-0.1858,-0.1859,-0.1867,-0.1867,-0.1867,-0.1867,0,-0.1761,-0.1772,-0.1771,-0.1783,-0.1786,-0.1783,-0.1794,-0.1793,-0.1801,-0.1801,-0.1802,-0.1814,-0.1817,-0.1828,-0.1833,-0.1839,-0.1834,-0.1838,-0.1831,-0.1833,-0.1825,-0.1825,-0.1798,-0.1796,-0.1825,-0.1825,-0.1825,0,-0.1747,-0.1745,-0.1757,-0.1759,-0.1763,-0.1765,-0.1768,-0.1781,-0.1783,-0.1791,-0.1789,-0.1793,-0.1796,-0.18,-0.1809,-0.1813,-0.1817,-0.1808,-0.1818,-0.1815,-0.1817,-0.1817,-0.1816,-0.1805,-0.1805,-0.1805,-0.1804,0,-0.1722,-0.1728,-0.1731,-0.1736,-0.1739,-0.1744,-0.1749,-0.1749,-0.1763,-0.1765,-0.1768,-0.1771,-0.1776,-0.1779,-0.1785,-0.179,-0.1799,-0.1801,-0.18,-0.1796,-0.1792,-0.1794,-0.1825,-0.1802,-0.1802,-0.1802,-0.1802,-0.1802,-0.1702,-0.1701,-0.1709,-0.1713,-0.1718,-0.1723,-0.1723,-0.1731,-0.1734,-0.1739,-0.1747,-0.1749,-0.1756,-0.1765,-0.1769,-0.1771,-0.1776,-0.1774,-0.1773,-0.1772,-0.1771,-0.1792,-0.1772,-0.1772,-0.1772,-0.1772,-0.1772,0,-0.1677,-0.1684,-0.1686,-0.1694,-0.1696,-0.1705,-0.1712,-0.1713,-0.1715,-0.1721,-0.1724,-0.1728,-0.1731,-0.1741,-0.1745,-0.1745,-0.1749,-0.1745,-0.1745,-0.1746,-0.1766,-0.1766,-0.1742,-0.1742,-0.1742,-0.1742,-0.1742,-0.1742,-0.1665,-0.1663,-0.167,-0.1672,-0.1678,-0.168,-0.1683,-0.1687,-0.1693,-0.1696,-0.1699,-0.1705,-0.1713,-0.1718,-0.1722,-0.1724,-0.1725,-0.172,-0.1724,-0.1742,-0.1745,-0.1748,-0.1748,-0.172,-0.172,-0.1704,-0.1704,-0.1704]}]]